Location: Leuk
(46.3174°N, 7.6341°E)
Time: 13:13:11
(UTC+00:00)

Cosmos 1633 Rocket - Pass Details

Date: 09 March 2021
Orbit: 606 x 624 km, 82.5° (Epoch: 20 April)

Event Time Altitude Azimuth Distance (km) Brightness Sun altitude
Rises 03:44:22 0° 357° (N) 2,908 6.7 -22.9°
Reaches altitude 10° 03:46:44 10° 5° (N) 1,994 5.9 -22.5°
Maximum altitude 03:50:53 40° 75° (ENE) 923 4.4 -21.8°
Drops below altitude 10° 03:54:59 10° 145° (SE) 1,968 5.8 -21.1°
Sets 03:57:18 0° 153° (SSE) 2,865 6.6 -20.7°
